Tracking 26935 objects as of 5-Feb-2023
HD Live streaming from Space Station
objects crossing your sky now

USA 7

Track USA 7 now!
USA 7 is classified as:


NORAD ID: 15453
Int'l Code: 1984-129A
Perigee: 36,189.0 km
Apogee: 36,199.8 km
Inclination: 13.5 °
Period: 1,456.6 minutes
Semi major axis: 42565 km
RCS: Unknown
Launch date: December 22, 1984
Source: United States (US)
Launch site: AIR FORCE EASTERN TEST RANGE (AFETR)
Your satellite tracking list
Your tracking list is empty




NASA's NSSDC Master Catalog

Two Line Element Set (TLE):
1 15453U 84129A   23035.68175109 -.00000268  00000-0  00000-0 0  9999
2 15453  13.4815 330.5726 0001261 160.9234  34.2742  0.98859391 13900
Source of the keplerian elements: McCants